INTELSAT 35E (IS-35E)

Last updated on Jan. 24, 2020, 4:41 a.m. UTC

1 42818U 17041A   20023.46758755 -.00000246  00000-0  00000+0 0  9992
2 42818   0.0357 191.0380 0001535 124.7767 300.2552  1.00273436  9406
UTC
Height (km)
Latitude
Longitude
Inclination
Orbital Period
UTC large
Height (km)
Speed (km/s)
/
Latitude / Longitude
Inclination (degrees)
Orbital Period (minutes)
Azimuth
Elevation
Range (km)
Doppler Factor
iOS Compass Heading
iOS Angle

Next 30 passes for location: Hong Kong

Rise time Rise Azimuth (degrees) Set time Set Azimuth (degrees) Duration Max altitude (degrees)

No matching passes for this satellites